Location: *
(34.0486°S, 61.7880°E)
Time: 15:06:49
(UTC+00:00)

Daily predictions for brighter satellites

Satellite Brightness Start Highest point End
(mag) Time Altitude Azimuth Time Altitude Azimuth Time Altitude Azimuth
Meteor 1-21 4.3 14:04:00 10° N 14:09:41 87° E 14:15:23 10° S
Cosmos 2251 Rocket 3.5 14:05:30 10° SSW 14:10:51 80° ESE 14:16:09 10° NNE
Cosmos 1536 Rocket 3.6 14:08:51 10° N 14:13:06 56° E 14:17:25 10° SSE
SMAP 3.2 14:12:06 10° S 14:16:50 85° WSW 14:21:31 10° NNW
Cosmos 1025 Rocket 3.0 14:13:33 10° N 14:17:48 71° E 14:22:08 10° SSE
Okean-O 3.3 14:14:03 10° SSE 14:18:08 33° E 14:22:08 10° NNE
YAOGAN 1 4.0 14:18:36 10° SE 14:21:28 17° E 14:24:17 10° NE
Cosmos 1455 Rocket 3.6 14:17:27 10° SSW 14:21:50 66° W 14:26:08 10° N
Cosmos 1707 2.8 14:19:33 10° N 14:23:25 60° E 14:27:20 10° SSE
Helios 1A Rocket 3.8 14:22:05 10° S 14:26:13 55° WSW 14:30:17 10° NNW
Feng Yun 1-1 Rocket 4.3 14:20:16 10° SSE 14:26:13 76° ENE 14:31:59 10° N
SL-24 R/B - RUBIN 2 3.4 14:22:13 10° SSW 14:26:28 76° ESE 14:30:52 10° NNE
CZ-4 R/B 2.5 14:23:18 10° SE 14:26:42 24° E 14:30:00 10° NNE
Lacrosse 4 Rocket 2.8 14:23:44 10° NNE 14:26:45 19° ENE 14:29:44 10° ESE
USA 215 3.9 14:21:25 10° ESE 14:27:24 36° NE 14:33:18 10° N
Cosmos 1758 3.4 14:24:26 10° S 14:28:28 55° E 14:32:28 10° NNE
Shenzhou-11 Module 3.6 14:27:18 10° N 14:28:58 15° NE 14:29:53 13° ENE
Cosmos 1271 Rocket 3.3 14:33:02 10° NNE 14:36:29 34° E 14:40:03 10° SSE
NOAA 12 4.3 14:35:16 10° S 14:40:39 77° WSW 14:45:59 10° NNW
Cosmos 1939 Rocket 3.7 14:37:30 10° SE 14:41:11 29° E 14:44:45 10° NNE
Cosmos 2056 Rocket 3.4 14:36:32 10° N 14:41:38 69° ENE 14:46:52 10° SSE
Cosmos 1242 Rocket 2.8 14:39:33 10° N 14:43:01 46° E 14:46:36 10° SSE
Cosmos 2098 Rocket 4.2 14:37:27 10° N 14:43:51 81° E 14:51:19 10° S
BREEZE-M DEB (TANK) 3.4 14:40:48 10° NNW 14:45:27 24° NNE 14:46:31 20° ENE
Orbus 7S 4.3 14:43:07 10° WNW 14:45:34 22° N 14:46:54 16° NE
Cosmos 1674 3.6 14:43:26 10° NNE 14:46:32 25° E 14:49:41 10° SE
CZ-2C R/B 3.8 14:42:11 10° NNE 14:46:37 55° ESE 14:51:02 10° S
MOS 1 Rocket 4.3 14:44:17 10° NE 14:48:58 32° ESE 14:53:29 10° S
Meteor 1-16 Rocket 4.5 14:44:27 10° S 14:49:36 40° ESE 14:54:36 10° NNE
Cosmos 1844 Rocket 2.6 14:44:52 10° NNW 14:50:29 87° ENE 14:56:08 10° SSE
Cosmos 1190 Rocket 4.5 14:46:17 10° S 14:51:18 39° ESE 14:55:22 15° NE
Meteor 2-21 4.4 14:49:23 10° N 14:55:30 69° E 15:01:43 10° SSE
Lacrosse 5 2.5 14:54:23 10° N 14:59:01 36° ENE 15:01:08 25° ESE
KORONAS-FOTON 4.3 14:57:17 10° NNE 15:00:46 35° E 15:04:19 10° SSE
BREEZE-M DEB (TANK) 1.8 15:02:38 10° SW 15:04:35 41° S 15:04:35 41° S
Cosmos 1953 2.2 15:03:57 10° S 15:08:01 89° ESE 15:12:01 10° N
Cosmos 1140 Rocket 3.7 15:03:42 10° S 15:08:51 49° ESE 15:11:32 26° NE
FALCON 9 R/B 2.6 15:06:37 10° NW 15:13:48 32° NNE 15:14:44 29° NE
Cosmos 1892 Rocket 3.8 15:09:37 10° NNE 15:13:53 46° E 15:18:10 10° SSE
Cosmos 1452 Rocket 3.6 15:12:42 10° N 15:17:47 49° ENE 15:22:56 10° SSE
Cosmos 676 Rocket 4.4 15:13:33 10° S 15:18:38 42° ESE 15:19:27 39° E
Cosmos 1606 Rocket 3.6 15:15:10 10° S 15:19:28 53° E 15:20:01 49° ENE
Cosmos 407 Rocket 3.6 15:20:09 10° SSW 15:25:33 80° WNW 15:30:18 13° N
CSL-04 Debris 4.1 15:20:24 10° SSE 15:25:56 71° ENE 15:31:26 10° N
ATLAS 5 CENTAUR R/B 4.1 15:23:20 10° WSW 15:27:01 22° WNW 15:30:22 10° NNW
STARLINK-43 3.3 15:23:23 10° SW 15:26:59 74° SSE 15:26:59 74° SSE
Cosmos 1726 2.3 15:23:59 10° S 15:27:45 71° W 15:29:28 30° N
Meteor 2-10 4.3 15:24:11 10° SSW 15:29:14 66° W 15:34:18 10° N
CZ-2C R/B 2.6 15:25:37 10° NNE 15:30:56 90° E 15:36:28 10° SSW
USA 81 4.0 15:27:13 10° N 15:32:31 84° W 15:37:53 10° S
Okean 1-7 Rocket 4.1 15:28:48 10° N 15:34:25 46° SSE 15:37:43 10° SSE
Cosmos 2228 2.8 15:30:37 10° S 15:34:45 75° SE 15:34:45 75° SE
Cosmos 1745 Rocket 3.9 15:32:07 10° N 15:38:17 87° W 15:44:30 10° S
Meteosat 1 Rocket2 4.3 15:36:05 10° WNW 15:41:08 49° N 15:42:37 42° NE
Cosmos 2278 Rocket 3.8 15:37:15 10° N 15:38:58 20° N 15:38:58 20° N
BREEZE-M DEB (TANK) 4.0 15:40:10 10° W 15:42:43 29° SSW 15:44:57 21° SSE
Nadezhda 1 Rocket 3.9 15:38:24 10° S 15:44:45 78° E 15:47:58 31° NNE
Cosmos 1954 Rocket 3.9 15:41:01 10° SSW 15:46:25 74° ESE 15:46:30 74° E
YAOGAN 1 4.2 15:53:38 10° S 15:57:36 34° WSW 16:01:31 10° NW
CSL-04 Rocket 4.2 15:53:18 10° S 15:58:45 58° WSW 16:04:04 10° NNW
Meteor 2-5 Rocket 4.1 15:54:43 10° NNW 16:00:11 60° W 16:05:48 10° S
CZ-4 R/B 4.0 15:58:25 10° SSW 16:01:32 21° WSW 16:04:36 10° WNW
Meteor 1-24 Rocket 3.6 15:58:16 10° NNW 16:03:45 77° WSW 16:09:08 10° S
Lacrosse 4 Rocket 3.3 16:01:32 10° WNW 16:05:11 29° WSW 16:06:36 23° SSW
USA 215 3.8 16:06:08 22° SSE 16:10:27 55° SW 16:16:49 10° WNW
Centaur D AC-29 4.0 16:09:21 10° NW 16:18:51 22° N 16:18:51 22° N
Lacrosse 5 3.8 16:37:24 10° WNW 16:40:25 27° WSW 16:40:25 27° WSW
CZ-4C R/B 4.3 22:29:25 33° E 22:29:25 33° E 22:34:55 10° SE
CZ-3A R/B 4.5 22:54:28 26° NE 22:54:32 26° NE 23:06:44 10° E
USA 215 4.4 22:49:57 10° E 22:55:54 37° SE 22:56:50 36° SSE
ALOS 4.4 23:23:34 10° NE 23:27:21 25° ESE 23:31:11 10° SSE
H-2A R/B 4.3 23:29:48 10° SSE 23:31:28 22° SSE 23:31:28 22° SSE
Cosmos 923 Rocket 4.4 23:41:58 59° E 23:41:58 59° E 23:46:48 10° SSE
Lacrosse 5 2.6 23:42:04 52° SE 23:42:04 52° SE 23:46:52 10° NE
ATLAS CENTAUR R/B 4.0 23:46:29 12° SSE 23:46:29 12° SSE 23:46:53 10° SSE
